Regional Weather Roundup
Issued by NWS

Home | Current Version | Previous Version | Text Only | Print | Product List | Glossary Off
Versions: 1 2 3 4 5 6 7 8 9 10 11 12 13 14 15 16 17 18 19 20 21 22 23 24 25 26 27 28 29 30 31 32 33 34 35 36 37 38 39 40 41 42 43 44 45 46 47 48 49 50

000
ASUS43 KIND 161359
RWRIN

WEATHER ROUNDUP FOR INDIANA
NATIONAL WEATHER SERVICE INDIANAPOLIS IN
1000 AM EDT WED AUG 16 2017

NOTE: "FAIR" INDICATES FEW OR NO CLOUDS BELOW 12,000 FEET WITH NO
SIGNIFICANT WEATHER AND/OR OBSTRUCTIONS TO VISIBILITY.

* - STATION DOES NOT REPORT WEATHER SUCH AS PRECIPITATION OR FOG.

+ - STATION NOT QUALITY CONTROLLED BY THE NATIONAL WEATHER SERVICE.
    USE DATA WITH CAUTION...ESPECIALLY DEWPOINT AND RELATIVE
    HUMIDITY OBSERVATIONS.

INZ001>003-010>013-019-020-161500-
NORTHWEST INDIANA

CITY           SKY/WX    TMP DP  RH WIND       PRES   REMARKS
GARY /AIRPORT/ SUNNY     75  64  69 SE5       30.02S
MICHIGAN CITY+ SUNNY     73  68  83 CALM      30.02F
MONTICELLO +   SUNNY     76  70  83 SE3       30.01F
RENSSELAER +   SUNNY     73  64  73 CALM      30.02S

$$

LMZ046-743>745-161500-
SOUTHERN LAKE MICHIGAN

STATION/POSITION TIME  TEMP    WIND        PRES    WAVE
                       AIR SEA DIR/SP/G            HT
                 (UTC) (F)     (DEG/KT/KT) (MB)    (FT)
BURNS HARBOR     1340   73      80/  5/  8 1016.6F
MICHIGAN CITY    1330   70      60/  5/  6   N/A
5NW MICH CITY    1350   71 74  110/  6/  8   N/A     2

$$

INZ004-005-014>016-021>024-161500-
NORTH CENTRAL INDIANA

CITY           SKY/WX    TMP DP  RH WIND       PRES   REMARKS
ELKHART        MOSUNNY   73  66  78 CALM      30.04F
GOSHEN         MOSUNNY   75  65  70 SE5       30.05R
SOUTH BEND     SUNNY     74  67  78 E5        30.04S
WARSAW +       MOSUNNY   73  68  83 E3        30.04F

$$

INZ006>009-017-018-025>027-161500-
NORTHEAST INDIANA

CITY           SKY/WX    TMP DP  RH WIND       PRES   REMARKS
FORT WAYNE     MOSUNNY   74  67  78 E3        30.05S
KENDALLVILLE + SUNNY     73  68  85 E3        30.07R

$$

INZ028-029-035-036-043>045-051>053-161500-
WEST CENTRAL INDIANA

CITY           SKY/WX    TMP DP  RH WIND       PRES   REMARKS
LAFAYETTE      SUNNY     78  72  81 CALM      30.01S
TERRE HAUTE    MOSUNNY   77  72  84 SE5       30.02S

$$

INZ030>032-037>040-046>048-054>057-064-065-161500-
CENTRAL INDIANA

CITY           SKY/WX    TMP DP  RH WIND       PRES   REMARKS
ANDERSON       SUNNY     77  70  78 MISG      30.03F
COLUMBUS       SUNNY     75  70  83 CALM      30.04R
GREENWOOD *+   SUNNY     79  69  72 CALM      30.04S
INDIANAPOLIS   SUNNY     81  71  71 CALM      30.03R
-EAGLE CREEK   SUNNY     80  70  71 CALM      30.03S
KOKOMO +       SUNNY     78  72  81 SE3       30.05S
MT COMFORT *+  SUNNY     77  70  78 CALM      30.04S
SHELBYVILLE    SUNNY     80  71  74 CALM      30.03S

$$

INZ033-034-041-042-049-050-058-059-161500-
EAST CENTRAL INDIANA

CITY           SKY/WX    TMP DP  RH WIND       PRES   REMARKS
MUNCIE         SUNNY     81  69  67 CALM      30.05R
RICHMOND +     SUNNY     77  72  83 CALM      30.07S

$$

INZ060-061-067>069-081>083-085>088-161500-
SOUTHWEST INDIANA

CITY           SKY/WX    TMP DP  RH WIND       PRES   REMARKS
EVANSVILLE     PTSUNNY   78  72  81 S7        30.02R
HUNTINGBURG *+ CLOUDY    75  72  90 SE8       30.03R

$$

INZ062-063-066-070>080-084-089>092-161500-
SOUTH CENTRAL AND SOUTHEAST INDIANA

CITY           SKY/WX    TMP DP  RH WIND       PRES   REMARKS
BLOOMINGTON    SUNNY     79  69  71 SE6       30.03S
MADISON *+     MOSUNNY   77  70  78 CALM      30.06S
SEYMOUR +      MOSUNNY   79  72  78 CALM      30.03S

$$





USA.gov is the U.S. government's official web portal to all federal, state and local government web resources and services.